Regional Weather Roundup
Issued by NWS

Home | Current Version | Previous Version | Graphics & Text | Print | Product List | Glossary On
Versions: 1 2 3 4 5 6 7 8 9 10 11 12 13 14 15 16 17 18 19 20 21 22 23 24 25 26 27 28 29 30 31 32 33 34 35 36 37 38 39 40 41 42 43 44 45 46 47 48 49 50
000
ASUS43 KBIS 161802
RWRND

NORTH DAKOTA REGIONAL WEATHER ROUNDUP
NATIONAL WEATHER SERVICE BISMARCK ND
1200 PM CST MON JAN 16 2017

NOTE: "FAIR" INDICATES FEW OR NO CLOUDS BELOW 12,000 FEET WITH NO
SIGNIFICANT WEATHER AND/OR OBSTRUCTIONS TO VISIBILITY.


NDZ001>003-009>011-017-161900-
NORTHWEST NORTH DAKOTA

CITY           SKY/WX    TMP DP  RH WIND       PRES   REMARKS
WILLISTON      FAIR      14   7  73 SW6       30.13F WCI   5
6HR MIN TEMP:   4; 6HR MAX TEMP:  14;

MINOT          FAIR      25  18  74 NW9       30.06S WCI  15
$$

NDZ018>021-031>035-040>046-161900-
SOUTHWEST NORTH DAKOTA

CITY           SKY/WX    TMP DP  RH WIND       PRES   REMARKS
BISMARCK       FAIR      15   5  64 W6        30.10F WCI   6
6HR MIN TEMP: -10; 6HR MAX TEMP:  17;

DICKINSON      FAIR      18  11  74 W13       30.06F WCI   5
GARRISON         N/A     19  12  74 NW9       30.07F WCI   8
6HR MIN TEMP:   8; 6HR MAX TEMP:  19;

HETTINGER ARPT CLOUDY    19  11  70 NW13      30.09F WCI   6
$$

NDZ004>008-012>016-024-026-027-054-161900-
NORTHEAST NORTH DAKOTA

CITY           SKY/WX    TMP DP  RH WIND       PRES   REMARKS
GRAND FORKS    CLOUDY    15   8  73 SW7       30.06F WCI   5
GRND FRKS AFB  CLOUDY    20   8  59 W6        30.06F WCI  13
DEVILS LAKE    FAIR      13   8  81 W7        30.04F WCI   3
$$

NDZ022-023-025-028>030-036>039-047>053-161900-
SOUTHEAST NORTH DAKOTA

CITY           SKY/WX    TMP DP  RH WIND       PRES   REMARKS
FARGO          CLOUDY    16  10  77 SW5       30.09F WCI   9
6HR MIN TEMP:   8; 6HR MAX TEMP:  17;

JAMESTOWN      FAIR      16   8  71 W10       30.05R WCI   4
$$





USA.gov is the U.S. government's official web portal to all federal, state and local government web resources and services.